Location: Emory University Observatory
(33.7903°N, 84.3267°W)
Time: 01:20:08
(UTC-04:00)

Envisat - Pass Details

Date: 11 October 2017
Orbit: 764 x 766 km, 98.2° (Epoch: 19 October)

Event Time Altitude Azimuth Distance (km) Brightness Sun altitude
Exits shadow 22:10:56 19° 321° (NW) 1,753 5.3 -38.4°
Drops below altitude 10° 22:12:31 10° 330° (NNW) 2,305 5.9 -38.7°
Sets 22:14:59 0° 339° (NNW) 3,234 6.7 -39.2°
